Time,TemperatureF,DewpointF,PressureIn,WindDirection,WindDirectionDegrees,WindSpeedMPH,WindSpeedGustMPH,Humidity,HourlyPrecipIn,Conditions,Clouds,dailyrainin,SoftwareType,DateUTC
2013-01-26 00:21:00,39.0,-99.9,30.25,North,-999,-999.0,-999.0,100,-99.99,,,-99.99,,2013-01-26 06:21:00,
2013-01-26 00:32:00,39.0,-99.9,30.25,North,-999,-999.0,-999.0,100,-99.99,,,-99.99,,2013-01-26 06:32:00,
2013-01-26 00:42:00,39.0,-99.9,30.25,North,-999,-999.0,-999.0,100,-99.99,,,-99.99,,2013-01-26 06:42:00,
2013-01-26 00:52:00,39.0,-99.9,30.25,North,-999,-999.0,-999.0,100,-99.99,,,-99.99,,2013-01-26 06:52:00,
2013-01-26 01:22:00,38.0,-99.9,30.27,North,-999,-999.0,-999.0,100,-99.99,,,-99.99,,2013-01-26 07:22:00,
2013-01-26 01:33:00,38.0,-99.9,30.27,North,-999,-999.0,-999.0,100,-99.99,,,-99.99,,2013-01-26 07:33:00,
2013-01-26 01:42:00,38.0,-99.9,30.27,North,-999,-999.0,-999.0,100,-99.99,,,-99.99,,2013-01-26 07:42:00,
2013-01-26 01:52:00,38.0,-99.9,30.27,North,-999,-999.0,-999.0,100,-99.99,,,-99.99,,2013-01-26 07:52:00,
2013-01-26 02:22:00,37.0,-99.9,30.28,North,-999,-999.0,-999.0,100,-99.99,,,-99.99,,2013-01-26 08:22:00,
2013-01-26 02:32:00,37.0,-99.9,30.28,North,-999,-999.0,-999.0,100,-99.99,,,-99.99,,2013-01-26 08:32:00,
2013-01-26 02:42:00,37.0,-99.9,30.28,North,-999,-999.0,-999.0,100,-99.99,,,-99.99,,2013-01-26 08:42:00,
2013-01-26 02:54:00,37.0,-99.9,30.28,North,-999,-999.0,-999.0,100,-99.99,,,-99.99,,2013-01-26 08:54:00,
2013-01-26 03:22:00,36.0,-99.9,30.29,North,-999,-999.0,-999.0,100,-99.99,,,-99.99,,2013-01-26 09:22:00,
2013-01-26 03:32:00,36.0,-99.9,30.29,North,-999,-999.0,-999.0,100,-99.99,,,-99.99,,2013-01-26 09:32:00,
2013-01-26 03:42:00,36.0,-99.9,30.29,North,-999,-999.0,-999.0,100,-99.99,,,-99.99,,2013-01-26 09:42:00,
2013-01-26 03:52:00,36.0,-99.9,30.29,North,-999,-999.0,-999.0,100,-99.99,,,-99.99,,2013-01-26 09:52:00,
2013-01-26 04:21:00,35.0,35.0,30.30,North,-999,-999.0,-999.0,99,-99.99,,,-99.99,,2013-01-26 10:21:00,
2013-01-26 04:32:00,35.0,35.0,30.30,North,-999,-999.0,-999.0,99,-99.99,,,-99.99,,2013-01-26 10:32:00,
2013-01-26 04:42:00,35.0,35.0,30.30,North,-999,-999.0,-999.0,99,-99.99,,,-99.99,,2013-01-26 10:42:00,
2013-01-26 04:52:00,35.0,35.0,30.30,North,-999,-999.0,-999.0,99,-99.99,,,-99.99,,2013-01-26 10:52:00,
2013-01-26 05:22:00,33.0,-99.9,30.29,North,-999,-999.0,-999.0,100,-99.99,,,-99.99,,2013-01-26 11:22:00,
2013-01-26 05:32:00,33.0,-99.9,30.29,North,-999,-999.0,-999.0,100,-99.99,,,-99.99,,2013-01-26 11:32:00,
2013-01-26 05:42:00,33.0,-99.9,30.29,North,-999,-999.0,-999.0,100,-99.99,,,-99.99,,2013-01-26 11:42:00,
2013-01-26 05:52:00,33.0,-99.9,30.29,North,-999,-999.0,-999.0,100,-99.99,,,-99.99,,2013-01-26 11:52:00,
2013-01-26 06:23:00,33.0,-99.9,30.32,North,-999,-999.0,-999.0,100,-99.99,,,-99.99,,2013-01-26 12:23:00,
2013-01-26 06:33:00,33.0,-99.9,30.32,North,-999,-999.0,-999.0,100,-99.99,,,-99.99,,2013-01-26 12:33:00,
2013-01-26 06:42:00,33.0,-99.9,30.32,North,-999,-999.0,-999.0,100,-99.99,,,-99.99,,2013-01-26 12:42:00,
2013-01-26 06:53:00,33.0,-99.9,30.32,North,-999,-999.0,-999.0,100,-99.99,,,-99.99,,2013-01-26 12:53:00,
2013-01-26 07:22:00,32.0,-99.9,30.33,North,-999,-999.0,-999.0,100,-99.99,,,-99.99,,2013-01-26 13:22:00,
2013-01-26 07:33:00,32.0,-99.9,30.33,North,-999,-999.0,-999.0,100,-99.99,,,-99.99,,2013-01-26 13:33:00,
2013-01-26 07:42:00,32.0,-99.9,30.33,North,-999,-999.0,-999.0,100,-99.99,,,-99.99,,2013-01-26 13:42:00,
2013-01-26 07:53:00,32.0,-99.9,30.33,North,-999,-999.0,-999.0,100,-99.99,,,-99.99,,2013-01-26 13:53:00,
2013-01-26 08:22:00,34.0,-99.9,30.34,North,-999,-999.0,-999.0,100,-99.99,,,-99.99,,2013-01-26 14:22:00,
2013-01-26 08:32:00,34.0,-99.9,30.34,North,-999,-999.0,-999.0,100,-99.99,,,-99.99,,2013-01-26 14:32:00,
2013-01-26 08:43:00,34.0,-99.9,30.34,North,-999,-999.0,-999.0,100,-99.99,,,-99.99,,2013-01-26 14:43:00,
2013-01-26 08:53:00,34.0,-99.9,30.34,North,-999,-999.0,-999.0,100,-99.99,,,-99.99,,2013-01-26 14:53:00,
2013-01-26 09:22:00,36.0,33.0,30.35,North,-999,-999.0,-999.0,90,-99.99,,,-99.99,,2013-01-26 15:22:00,
2013-01-26 09:32:00,36.0,33.0,30.35,North,-999,-999.0,-999.0,90,-99.99,,,-99.99,,2013-01-26 15:32:00,
2013-01-26 09:43:00,36.0,33.0,30.35,North,-999,-999.0,-999.0,90,-99.99,,,-99.99,,2013-01-26 15:43:00,
2013-01-26 09:52:00,36.0,33.0,30.35,North,-999,-999.0,-999.0,90,-99.99,,,-99.99,,2013-01-26 15:52:00,
2013-01-26 10:22:00,39.0,33.0,30.37,North,-999,-999.0,-999.0,81,-99.99,,,-99.99,,2013-01-26 16:22:00,
2013-01-26 10:33:00,39.0,33.0,30.37,North,-999,-999.0,-999.0,81,-99.99,,,-99.99,,2013-01-26 16:33:00,
2013-01-26 10:42:00,39.0,33.0,30.37,North,-999,-999.0,-999.0,81,-99.99,,,-99.99,,2013-01-26 16:42:00,
2013-01-26 10:53:00,39.0,33.0,30.37,North,-999,-999.0,-999.0,81,-99.99,,,-99.99,,2013-01-26 16:53:00,
2013-01-26 11:22:00,43.0,32.0,30.36,North,-999,-999.0,-999.0,64,-99.99,,,-99.99,,2013-01-26 17:22:00,
2013-01-26 11:33:00,43.0,32.0,30.36,North,-999,-999.0,-999.0,64,-99.99,,,-99.99,,2013-01-26 17:33:00,
2013-01-26 11:42:00,43.0,32.0,30.36,North,-999,-999.0,-999.0,64,-99.99,,,-99.99,,2013-01-26 17:42:00,
2013-01-26 11:52:00,43.0,32.0,30.36,North,-999,-999.0,-999.0,64,-99.99,,,-99.99,,2013-01-26 17:52:00,
2013-01-26 12:22:00,48.0,32.0,30.34,North,-999,-999.0,-999.0,55,-99.99,,,-99.99,,2013-01-26 18:22:00,
2013-01-26 12:33:00,48.0,32.0,30.34,North,-999,-999.0,-999.0,55,-99.99,,,-99.99,,2013-01-26 18:33:00,
2013-01-26 12:42:00,48.0,32.0,30.34,North,-999,-999.0,-999.0,55,-99.99,,,-99.99,,2013-01-26 18:42:00,
2013-01-26 12:52:00,48.0,32.0,30.34,North,-999,-999.0,-999.0,55,-99.99,,,-99.99,,2013-01-26 18:52:00,
2013-01-26 13:22:00,51.0,34.0,30.32,North,-999,-999.0,-999.0,52,-99.99,,,-99.99,,2013-01-26 19:22:00,
2013-01-26 13:32:00,51.0,34.0,30.32,North,-999,-999.0,-999.0,52,-99.99,,,-99.99,,2013-01-26 19:32:00,
2013-01-26 13:42:00,51.0,34.0,30.32,North,-999,-999.0,-999.0,52,-99.99,,,-99.99,,2013-01-26 19:42:00,
2013-01-26 13:52:00,51.0,34.0,30.32,North,-999,-999.0,-999.0,52,-99.99,,,-99.99,,2013-01-26 19:52:00,
2013-01-26 14:22:00,53.0,33.0,30.31,North,-999,-999.0,-999.0,46,-99.99,,,-99.99,,2013-01-26 20:22:00,
2013-01-26 14:32:00,53.0,33.0,30.31,North,-999,-999.0,-999.0,46,-99.99,,,-99.99,,2013-01-26 20:32:00,
2013-01-26 14:42:00,53.0,33.0,30.31,North,-999,-999.0,-999.0,46,-99.99,,,-99.99,,2013-01-26 20:42:00,
2013-01-26 14:52:00,53.0,33.0,30.31,North,-999,-999.0,-999.0,46,-99.99,,,-99.99,,2013-01-26 20:52:00,
2013-01-26 15:22:00,52.0,33.0,30.31,North,-999,-999.0,-999.0,49,-99.99,,,-99.99,,2013-01-26 21:22:00,
2013-01-26 15:32:00,52.0,33.0,30.31,North,-999,-999.0,-999.0,49,-99.99,,,-99.99,,2013-01-26 21:32:00,
2013-01-26 15:42:00,52.0,33.0,30.31,North,-999,-999.0,-999.0,49,-99.99,,,-99.99,,2013-01-26 21:42:00,
2013-01-26 15:51:00,52.0,33.0,30.31,North,-999,-999.0,-999.0,49,-99.99,,,-99.99,,2013-01-26 21:51:00,
2013-01-26 16:22:00,51.0,31.0,30.31,North,-999,-999.0,-999.0,46,-99.99,,,-99.99,,2013-01-26 22:22:00,
2013-01-26 16:32:00,51.0,31.0,30.31,North,-999,-999.0,-999.0,46,-99.99,,,-99.99,,2013-01-26 22:32:00,
2013-01-26 16:42:00,51.0,31.0,30.31,North,-999,-999.0,-999.0,46,-99.99,,,-99.99,,2013-01-26 22:42:00,
2013-01-26 16:51:00,51.0,31.0,30.31,North,-999,-999.0,-999.0,46,-99.99,,,-99.99,,2013-01-26 22:51:00,
2013-01-26 17:22:00,47.0,33.0,30.32,North,-999,-999.0,-999.0,57,-99.99,,,-99.99,,2013-01-26 23:22:00,
2013-01-26 17:32:00,47.0,33.0,30.32,North,-999,-999.0,-999.0,57,-99.99,,,-99.99,,2013-01-26 23:32:00,
2013-01-26 17:42:00,47.0,33.0,30.32,North,-999,-999.0,-999.0,57,-99.99,,,-99.99,,2013-01-26 23:42:00,
2013-01-26 17:52:00,47.0,33.0,30.32,North,-999,-999.0,-999.0,57,-99.99,,,-99.99,,2013-01-26 23:52:00,
2013-01-26 18:21:00,43.0,33.0,30.32,North,-999,-999.0,-999.0,68,-99.99,,,-99.99,,2013-01-27 00:21:00,
2013-01-26 18:32:00,43.0,33.0,30.32,North,-999,-999.0,-999.0,68,-99.99,,,-99.99,,2013-01-27 00:32:00,
2013-01-26 18:42:00,43.0,33.0,30.32,North,-999,-999.0,-999.0,68,-99.99,,,-99.99,,2013-01-27 00:42:00,
2013-01-26 18:51:00,43.0,33.0,30.32,North,-999,-999.0,-999.0,68,-99.99,,,-99.99,,2013-01-27 00:51:00,
2013-01-26 19:22:00,42.0,34.0,30.33,North,-999,-999.0,-999.0,73,-99.99,,,-99.99,,2013-01-27 01:22:00,
2013-01-26 19:32:00,42.0,34.0,30.33,North,-999,-999.0,-999.0,73,-99.99,,,-99.99,,2013-01-27 01:32:00,
2013-01-26 19:42:00,42.0,34.0,30.33,North,-999,-999.0,-999.0,73,-99.99,,,-99.99,,2013-01-27 01:42:00,
2013-01-26 19:52:00,42.0,34.0,30.33,North,-999,-999.0,-999.0,73,-99.99,,,-99.99,,2013-01-27 01:52:00,
2013-01-26 20:22:00,45.0,32.0,30.34,North,-999,-999.0,-999.0,60,-99.99,,,-99.99,,2013-01-27 02:22:00,
2013-01-26 20:32:00,45.0,32.0,30.34,North,-999,-999.0,-999.0,60,-99.99,,,-99.99,,2013-01-27 02:32:00,
2013-01-26 20:42:00,45.0,32.0,30.34,North,-999,-999.0,-999.0,60,-99.99,,,-99.99,,2013-01-27 02:42:00,
2013-01-26 20:52:00,45.0,32.0,30.34,North,-999,-999.0,-999.0,60,-99.99,,,-99.99,,2013-01-27 02:52:00,
2013-01-26 21:21:00,44.0,30.0,30.34,North,-999,-999.0,-999.0,58,-99.99,,,-99.99,,2013-01-27 03:21:00,
2013-01-26 21:32:00,44.0,30.0,30.34,North,-999,-999.0,-999.0,58,-99.99,,,-99.99,,2013-01-27 03:32:00,
2013-01-26 21:42:00,44.0,30.0,30.34,North,-999,-999.0,-999.0,58,-99.99,,,-99.99,,2013-01-27 03:42:00,
2013-01-26 21:51:00,44.0,30.0,30.34,North,-999,-999.0,-999.0,58,-99.99,,,-99.99,,2013-01-27 03:51:00,
2013-01-26 22:21:00,43.0,31.0,30.35,North,-999,-999.0,-999.0,62,-99.99,,,-99.99,,2013-01-27 04:21:00,
2013-01-26 22:32:00,43.0,31.0,30.35,North,-999,-999.0,-999.0,62,-99.99,,,-99.99,,2013-01-27 04:32:00,
2013-01-26 22:41:00,43.0,31.0,30.35,North,-999,-999.0,-999.0,62,-99.99,,,-99.99,,2013-01-27 04:41:00,
2013-01-26 22:51:00,43.0,31.0,30.35,North,-999,-999.0,-999.0,62,-99.99,,,-99.99,,2013-01-27 04:51:00,
2013-01-26 23:22:00,43.0,31.0,30.35,North,-999,-999.0,-999.0,64,-99.99,,,-99.99,,2013-01-27 05:22:00,
2013-01-26 23:32:00,43.0,31.0,30.35,North,-999,-999.0,-999.0,64,-99.99,,,-99.99,,2013-01-27 05:32:00,
2013-01-26 23:41:00,43.0,31.0,30.35,North,-999,-999.0,-999.0,64,-99.99,,,-99.99,,2013-01-27 05:41:00,
2013-01-26 23:52:00,43.0,31.0,30.35,North,-999,-999.0,-999.0,64,-99.99,,,-99.99,,2013-01-27 05:52:00,